Wind_Speed
58 57 57 56 56 55 55 54 55 56 58 60 62 63 63 61 58 56 56 57 59 60 60 61 61 62 61 60 59 58 58 57 57 57 59 59 60 64 68 71 72 71 70 70 70 69 69 68 67 66 66 65 64 64 63 62 62 61 60 61 60 60 60 57 55 56 52 44 47 53 52 53 53 54 55 55 56 55 54 49 47 53 55 54 54 54 54 55
60 59 59 58 58 58 57 57 56 56 57 59 61 62 64 64 62 59 57 57 58 59 60 61 62 62 62 62 61 60 59 59 58 57 57 55 56 60 64 68 71 72 72 71 70 70 70 69 68 68 67 67 66 65 64 64 64 63 63 63 62 63 61 56 55 55 51 48 53 55 53 53 53 54 55 55 56 56 56 52 51 54 56 56 56 56 56 56
63 62 61 61 60 60 60 59 58 58 57 58 60 62 63 65 64 62 60 58 57 58 59 60 61 62 63 63 62 62 61 61 60 57 56 54 54 57 60 63 67 71 72 72 71 71 70 70 70 70 69 68 67 66 65 65 65 65 65 65 65 64 59 56 56 55 53 54 55 55 54 54 53 54 55 56 57 56 56 55 51 49 52 56 57 58 58 57
67 66 65 64 63 63 62 61 61 60 59 59 60 61 62 64 65 65 63 61 59 58 59 60 61 62 63 63 64 63 63 62 60 57 56 54 55 56 58 60 63 66 69 72 73 72 71 71 71 71 70 70 69 68 67 67 67 67 66 67 67 62 59 58 58 56 55 56 56 56 55 54 54 55 56 56 57 57 57 56 53 49 51 56 58 58 57 56
70 70 69 68 66 65 64 63 63 62 61 60 60 62 63 63 64 66 66 64 62 60 58 59 60 62 62 63 64 64 64 63 59 59 57 55 56 57 57 57 59 61 65 68 72 73 72 72 72 71 71 71 70 70 69 69 68 68 68 69 65 62 62 60 57 57 58 58 57 56 56 55 56 56 57 58 58 58 57 57 55 50 50 55 57 56 55 54
68 69 69 69 68 67 65 65 64 64 63 62 61 62 63 63 64 65 67 67 65 62 59 59 60 61 62 63 63 64 65 62 60 61 59 56 58 58 57 57 57 58 60 64 68 72 73 73 73 72 72 72 72 72 71 71 70 70 70 69 65 64 63 59 58 59 59 59 57 57 56 56 58 58 58 59 59 58 57 56 52 48 50 55 55 51 50 50
61 64 65 66 66 66 65 64 64 64 64 64 63 62 63 64 63 64 66 68 68 65 62 60 59 60 62 63 63 64 64 62 62 63 59 58 59 58 58 57 56 56 57 60 63 68 71 73 74 73 73 72 72 73 72 72 72 72 71 69 67 66 63 60 60 61 60 59 58 58 58 59 59 58 60 60 59 57 56 53 47 47 51 53 50 47 47 48
57 59 61 63 64 64 64 64 64 64 65 65 64 63 63 65 64 63 65 67 69 68 65 62 60 60 61 62 63 64 64 63 62 63 60 59 59 59 59 57 57 56 56 57 59 62 66 70 73 74 74 73 73 73 72 72 73 73 72 70 68 66 64 62 62 61 61 61 59 60 60 60 59 59 61 60 59 57 55 51 45 45 47 46 47 48 49 50
57 57 58 60 62 63 65 65 65 65 65 65 65 64 64 65 65 65 64 66 69 70 68 65 62 61 61 62 63 64 64 63 62 63 60 59 60 60 59 58 57 56 56 56 56 57 61 65 70 73 75 75 74 73 71 72 74 73 72 71 68 66 65 64 64 63 63 62 61 61 61 60 60 61 63 61 60 59 58 54 46 44 44 45 49 51 52 51
58 58 58 59 60 62 63 65 66 66 66 65 65 65 65 65 66 66 65 65 67 71 71 68 65 62 61 61 62 63 64 63 63 63 61 60 60 60 59 59 58 57 56 56 55 56 57 60 64 67 71 73 74 73 71 72 73 72 72 71 69 67 66 65 65 64 63 63 63 62 62 62 62 63 64 62 61 61 60 54 48 49 50 51 54 54 52 51
58 59 59 59 60 61 62 63 65 67 67 67 66 66 66 66 67 67 66 65 66 69 72 71 68 65 63 61 62 62 64 64 63 62 62 61 61 60 59 59 58 57 57 56 56 56 55 56 57 60 65 69 72 73 73 73 71 71 72 71 69 68 66 66 65 64 64 64 64 64 64 63 63 66 64 62 62 62 61 57 54 55 53 52 53 53 52 50
60 60 61 61 61 61 62 62 64 66 68 68 68 67 67 67 67 67 67 67 66 68 71 72 70 68 65 62 62 63 65 65 62 62 63 62 61 60 60 60 59 58 57 56 56 55 54 54 54 57 60 62 68 71 72 73 72 72 72 70 69 69 67 67 66 65 65 65 64 64 64 64 65 67 64 62 64 64 63 62 60 56 51 48 48 50 51 49
61 61 62 62 62 62 62 62 63 65 67 69 69 68 68 67 67 68 69 68 67 67 69 72 72 71 67 63 63 65 66 65 61 62 63 62 62 61 60 60 59 58 57 56 55 54 54 54 55 55 54 57 62 64 68 72 72 73 72 70 69 68 67 67 67 66 65 63 62 63 64 64 66 66 63 63 65 65 63 62 58 53 49 47 45 46 48 48
61 62 63 63 64 63 63 63 64 65 67 70 70 70 69 68 68 68 69 69 69 68 68 71 73 73 69 66 67 66 66 65 62 63 63 62 62 61 61 60 59 58 57 57 55 54 54 55 56 54 53 56 57 56 62 67 69 72 72 71 69 67 67 68 68 67 65 63 62 63 65 65 66 66 63 64 65 64 63 61 58 53 50 48 46 47 47 46
60 62 63 63 64 63 63 63 64 65 66 69 72 71 70 69 68 69 69 70 70 69 68 69 72 74 71 70 70 67 66 66 64 64 63 62 62 61 61 60 59 58 58 57 55 55 56 55 55 53 54 55 52 53 58 60 62 67 69 70 69 68 68 67 68 67 66 65 63 64 65 66 66 65 63 63 64 63 62 61 56 51 50 48 46 46 47 45
59 60 61 62 63 63 62 62 63 64 66 68 72 73 72 71 70 69 70 71 71 70 69 69 70 73 74 74 72 69 67 66 66 66 64 63 63 62 61 61 60 58 58 57 56 57 56 56 55 53 54 53 51 54 55 54 56 59 62 65 67 68 69 68 65 65 67 66 64 65 66 68 67 63 61 62 62 62 61 59 54 49 48 47 45 45 45 45
57 58 59 60 61 61 61 61 61 63 64 67 70 73 74 73 72 71 71 71 71 71 70 69 69 72 75 76 75 73 69 68 67 66 65 65 64 63 62 62 61 60 59 58 58 58 57 56 55 54 54 52 52 54 53 52 54 54 56 59 62 66 69 66 63 65 66 64 65 66 68 71 67 61 61 62 62 61 59 58 52 46 45 45 45 45 44 43
55 56 57 57 58 59 59 59 59 60 63 65 68 72 75 75 74 72 71 71 72 72 71 70 69 71 74 78 79 76 72 69 67 66 66 66 65 64 63 63 62 61 60 59 59 58 58 56 55 55 54 53 53 53 52 52 53 53 55 56 57 60 64 63 63 66 66 64 65 67 71 72 65 59 60 61 61 60 60 58 51 43 42 43 45 45 45 46
53 54 54 55 55 56 57 56 57 58 60 63 65 70 74 76 76 74 72 72 71 72 72 71 71 71 73 78 81 78 73 71 69 67 66 66 66 65 65 63 62 62 61 60 60 59 58 57 55 54 53 53 53 52 52 52 53 54 54 55 55 56 59 59 61 65 66 66 67 68 72 72 64 60 61 61 62 61 60 59 51 46 47 48 48 48 48 49
51 52 52 52 53 54 55 55 55 56 58 60 63 67 71 75 76 75 73 71 72 73 74 72 72 73 73 75 79 78 75 74 72 68 66 66 66 66 66 65 63 63 62 61 60 59 59 57 54 54 53 53 54 53 54 55 55 53 53 55 54 54 57 57 57 60 64 67 68 69 73 71 65 62 62 62 64 62 61 59 52 49 50 50 49 50 49 48
50 50 50 50 50 51 52 53 54 55 56 58 61 65 68 71 74 75 74 73 74 74 74 73 73 74 71 71 75 78 78 77 74 70 68 67 67 66 66 65 64 63 62 62 61 60 59 56 54 55 54 54 54 54 56 56 54 52 53 54 54 54 56 56 53 54 60 65 67 69 72 71 67 62 61 64 64 63 60 57 53 50 50 50 49 48 48 47
49 49 49 48 48 49 50 51 52 53 55 57 60 63 65 68 72 74 75 74 74 74 73 74 73 72 70 69 73 77 80 79 76 72 70 69 68 67 66 66 65 64 63 63 61 59 58 56 55 56 55 55 55 55 56 54 51 52 54 55 54 54 56 56 51 51 56 61 65 68 71 72 68 62 63 65 65 62 59 56 53 50 49 49 47 47 48 47
49 48 47 46 47 47 47 49 51 52 54 56 59 61 63 66 69 72 74 74 73 73 73 73 73 72 71 71 72 75 78 80 78 75 72 70 69 68 67 67 67 66 65 64 61 59 58 56 57 57 56 55 55 56 55 52 51 53 54 54 53 52 55 54 48 50 54 57 62 64 67 71 67 63 65 66 65 62 59 56 52 49 48 46 44 45 47 46
49 48 46 45 46 45 45 47 49 51 53 55 58 60 62 65 66 68 72 73 72 72 72 73 74 73 71 71 71 71 74 79 80 77 74 72 71 69 68 68 68 67 66 64 62 60 59 59 59 58 57 56 56 56 54 52 53 53 53 53 52 52 54 52 48 51 53 57 62 59 62 67 65 64 66 66 65 62 58 54 51 50 49 46 46 46 44 44
49 48 46 44 44 44 44 45 47 50 53 55 57 59 61 63 64 66 69 71 71 72 72 73 73 72 71 71 69 69 71 75 79 79 76 74 73 71 70 70 70 68 67 66 63 62 62 62 59 58 57 57 56 56 55 54 54 53 53 53 52 52 54 51 49 51 52 56 59 55 57 62 62 65 66 66 65 62 59 55 52 51 50 48 50 49 45 43
49 48 46 44 44 43 42 43 46 49 52 53 56 58 60 61 62 65 67 69 71 72 72 71 71 72 71 68 68 69 70 71 76 79 79 77 76 74 72 71 71 69 69 67 65 64 64 62 60 59 58 57 57 56 55 55 54 54 54 53 53 53 51 49 47 49 52 55 55 53 55 58 60 63 64 65 65 63 60 56 52 52 52 50 50 49 48 46
49 48 46 44 43 42 41 43 46 48 49 52 55 57 59 60 61 63 66 69 70 70 70 70 70 71 69 67 68 69 67 68 72 77 80 80 79 77 75 73 72 72 71 69 67 66 65 63 61 60 59 58 58 57 56 56 56 55 54 54 54 52 49 47 45 47 51 54 54 52 54 56 59 62 62 64 64 62 60 56 53 54 53 52 51 51 51 50
50 48 47 44 43 41 41 42 44 46 48 51 54 55 57 58 60 62 65 68 68 69 69 69 69 69 68 68 67 66 66 68 70 73 79 83 82 80 78 76 74 74 72 70 68 67 66 66 62 60 60 59 57 57 57 57 57 57 56 56 54 52 51 48 46 48 51 54 54 52 53 56 58 59 60 61 61 59 58 56 55 55 53 53 53 53 52 52
50 49 47 45 42 41 41 41 43 45 48 50 51 52 54 56 59 62 64 66 66 67 67 67 68 69 68 66 65 66 66 66 66 69 77 83 84 82 80 79 77 76 74 71 70 69 70 67 62 61 63 61 59 59 59 59 59 60 59 58 56 54 53 51 49 49 51 52 51 50 52 55 57 56 56 59 59 57 56 56 56 56 56 56 56 55 54 53
51 50 48 45 42 40 40 41 42 44 46 47 48 50 52 54 58 61 63 64 65 65 66 67 68 67 66 64 64 65 63 63 65 68 74 79 83 84 83 81 79 78 76 73 72 72 71 67 64 65 66 64 63 63 62 61 63 64 62 59 59 58 55 54 51 51 52 49 45 47 50 53 56 53 53 57 57 55 55 57 58 58 59 59 58 57 56 55
51 50 48 44 42 41 40 40 42 43 44 45 46 48 50 53 57 59 62 64 64 65 66 67 66 65 64 63 63 62 61 62 63 64 68 74 80 83 84 82 80 79 77 73 73 74 71 67 66 67 67 65 64 64 64 64 66 66 61 59 60 60 58 56 53 52 52 46 42 46 48 51 54 52 52 56 54 53 54 57 60 60 60 60 60 59 58 56
51 50 48 45 42 41 40 40 41 42 42 44 45 47 49 52 55 58 60 63 64 64 66 65 63 64 63 63 62 61 61 61 58 58 64 70 74 80 82 82 79 78 76 73 75 75 71 69 69 68 68 67 66 66 65 66 67 64 59 59 61 61 59 57 54 52 51 46 44 46 48 51 55 54 53 52 50 50 53 56 60 61 60 60 60 59 58 57
51 50 48 45 43 41 40 40 41 41 42 42 43 46 49 51 54 57 61 64 64 65 66 64 63 63 63 62 61 60 60 58 54 56 61 64 69 75 79 81 80 79 77 76 77 77 74 72 71 71 70 69 69 68 66 66 67 62 59 61 62 61 58 55 54 53 51 49 47 49 51 52 53 51 48 47 47 48 51 54 59 62 61 61 60 60 58 57
51 50 47 45 43 42 40 40 40 41 41 41 42 45 48 50 54 58 62 64 65 66 66 64 63 62 62 61 60 59 58 55 52 54 56 58 62 68 72 76 78 79 79 78 78 78 75 72 72 73 72 72 72 70 68 69 69 64 63 63 62 60 57 54 53 52 50 50 50 53 55 51 48 46 45 46 48 49 50 53 56 60 63 62 62 61 59 57
50 49 47 45 44 42 41 40 40 40 40 40 42 44 48 52 56 60 63 64 65 65 64 63 62 62 61 61 60 59 58 55 54 54 53 52 55 58 63 67 71 74 76 76 76 77 75 72 73 75 74 74 73 71 72 73 70 67 66 65 62 59 57 55 54 53 52 52 54 55 55 50 45 44 45 47 49 49 49 51 53 58 62 64 63 61 60 58
49 47 46 45 44 42 41 40 40 40 40 41 42 45 49 54 58 61 62 63 64 64 63 62 62 61 60 60 59 58 58 57 55 55 54 52 53 54 56 58 61 64 66 67 69 71 70 71 73 75 75 74 73 72 73 73 69 68 67 64 60 60 60 58 56 55 55 55 56 56 53 49 46 44 45 47 49 50 50 50 51 55 60 63 64 63 61 59
46 46 45 45 44 42 41 40 40 40 40 41 42 46 50 54 57 59 60 62 64 64 64 63 61 60 60 60 58 58 58 57 55 55 55 55 55 55 55 56 56 58 59 61 64 64 64 67 70 71 72 72 73 74 74 71 69 68 65 61 61 62 63 61 59 58 57 56 56 56 52 49 48 47 46 47 49 50 50 51 51 53 57 62 64 64 62 60
44 44 45 45 44 42 41 40 40 40 40 42 44 46 49 52 54 56 59 61 62 62 62 62 61 61 61 60 59 59 58 56 56 57 57 57 58 58 58 57 57 59 60 61 63 63 63 67 70 70 71 71 71 73 73 71 69 67 64 63 64 64 62 60 58 56 55 55 56 56 53 50 49 49 48 48 50 51 51 52 53 53 56 60 63 63 62 59
42 43 44 44 43 42 41 40 40 40 41 42 44 45 47 49 52 54 56 58 59 61 62 62 61 61 60 59 60 60 57 57 58 58 58 58 59 59 59 58 59 61 61 61 63 64 64 68 70 69 71 72 72 72 70 68 68 68 67 66 65 64 61 59 58 55 55 55 56 56 53 50 49 50 50 50 51 51 52 53 54 55 57 60 62 63 61 58
41 43 43 43 42 41 40 40 40 40 41 43 44 45 46 48 50 52 55 57 58 60 61 61 62 60 60 60 60 58 57 58 59 58 59 60 60 59 58 58 59 60 60 61 63 64 64 67 68 70 73 75 73 70 66 65 67 67 65 63 63 61 60 60 59 58 57 57 57 56 54 52 52 51 51 51 51 53 55 54 55 57 59 62 63 62 60 57
40 42 42 42 41 41 41 41 42 42 43 44 44 44 45 46 48 50 52 54 57 59 59 60 61 60 60 60 58 58 58 58 58 59 60 60 58 57 57 58 59 59 59 59 62 64 64 65 67 69 71 71 69 67 65 66 67 64 62 62 62 61 60 60 59 57 56 56 56 56 55 55 53 51 50 50 52 56 56 55 56 57 59 62 62 61 59 56
40 41 41 41 41 42 42 43 43 43 43 43 43 43 44 44 46 47 50 52 55 57 59 60 60 60 60 60 59 59 58 58 58 59 60 58 57 57 58 58 58 58 57 57 61 63 63 64 66 66 66 66 66 66 67 68 67 64 64 66 64 62 61 60 58 56 55 55 54 56 56 55 52 51 49 48 50 54 56 56 57 57 58 61 61 60 58 56
39 40 40 41 41 42 43 43 42 42 41 41 42 42 43 44 45 47 49 51 54 56 57 58 59 59 59 59 58 58 57 58 59 60 60 58 57 58 58 58 58 58 57 58 61 62 62 63 64 64 64 64 66 67 68 68 67 65 66 66 64 62 62 60 58 57 57 55 54 56 57 54 50 47 47 49 52 55 55 54 55 56 58 59 60 58 57 55
37 38 40 41 41 42 42 42 41 40 40 40 40 40 41 43 44 46 48 50 52 53 54 55 56 57 56 56 55 55 55 56 57 58 58 57 56 57 57 57 57 57 57 59 61 61 60 60 61 63 65 65 66 67 67 67 65 65 66 65 63 62 62 61 60 60 58 56 54 55 55 54 50 47 49 55 57 56 53 51 52 56 57 57 58 56 56 55
35 37 39 41 41 41 40 40 39 38 38 38 38 38 40 41 43 44 45 47 49 50 51 52 52 53 52 52 52 53 53 54 55 57 57 55 55 56 58 57 56 57 58 59 59 59 58 59 60 63 65 65 64 64 64 63 63 64 65 64 63 63 62 61 61 60 57 53 53 56 56 54 52 48 49 54 56 54 53 50 52 55 56 56 56 55 54 54
36 38 39 39 39 38 37 36 35 35 35 35 36 36 38 39 40 41 43 44 46 46 48 48 49 49 50 50 51 52 52 53 55 56 55 55 56 58 58 57 57 57 57 56 55 55 55 56 57 59 62 63 63 64 63 62 63 63 62 62 63 62 61 60 60 58 55 53 55 59 59 54 51 49 50 54 55 55 56 53 52 54 55 55 55 53 53 52
37 37 38 38 37 36 34 33 32 32 33 34 35 35 36 36 37 38 40 41 41 42 43 44 46 47 48 49 50 50 51 53 54 55 54 54 56 56 54 55 55 55 55 54 52 51 51 51 51 54 56 58 60 62 62 63 62 62 62 62 62 61 59 59 57 54 54 57 59 61 60 57 53 52 55 57 57 57 57 56 55 55 55 54 53 53 53 53
34 35 35 34 33 33 32 31 31 32 33 33 33 33 33 34 34 35 36 36 37 39 40 42 44 45 46 47 47 48 49 50 51 51 51 52 52 52 52 54 53 53 54 54 52 51 49 47 48 50 52 54 56 58 59 61 62 61 61 61 59 59 58 56 54 54 57 60 61 61 61 59 56 56 58 60 58 56 56 56 56 55 53 52 52 52 53 53
32 32 31 31 31 31 31 31 31 31 31 31 31 31 32 32 32 32 33 34 36 37 39 40 41 42 43 44 45 45 46 47 48 48 48 49 50 50 52 54 53 52 53 52 51 51 49 47 46 47 49 50 52 55 56 58 61 61 60 59 59 59 59 57 56 57 60 61 61 61 60 58 57 57 59 60 58 56 54 54 54 54 53 52 52 53 54 52
30 30 31 32 32 32 32 32 31 30 29 29 29 29 29 29 30 31 32 34 35 36 38 39 40 41 41 42 43 43 44 44 46 47 47 48 48 49 51 53 54 53 53 53 53 52 50 48 47 48 49 49 49 51 53 54 57 58 58 59 59 59 59 59 58 59 59 59 59 60 60 58 55 53 54 57 57 56 55 53 53 54 54 54 54 55 54 52
30 30 31 32 33 32 32 32 31 30 29 29 28 28 28 28 29 30 31 33 34 35 36 36 37 38 39 39 39 41 42 42 42 44 45 44 46 47 48 50 51 52 53 53 53 53 52 51 50 50 51 51 49 49 50 51 53 54 55 56 57 57 58 58 58 59 60 60 59 60 61 60 57 53 52 53 54 55 55 55 54 54 54 55 56 56 54 52
30 31 32 32 32 32 32 32 31 30 29 29 28 28 28 28 28 29 30 31 31 31 31 31 33 34 35 36 36 36 37 37 36 37 39 39 40 40 41 42 43 45 47 48 49 51 52 52 52 51 51 51 49 47 48 49 50 51 53 53 53 55 56 56 58 60 62 64 63 60 59 58 57 55 53 52 52 54 55 55 54 54 54 55 56 55 53 52
Wind_Direction
263 263 264 264 264 263 262 259 256 253 250 248 247 246 245 244 244 243 244 244 243 243 243 244 244 244 243 242 240 239 238 237 237 236 235 235 234 234 234 234 234 234 234 235 235 235 235 235 235 235 235 236 236 236 237 237 238 238 238 239 239 239 239 239 240 241 243 241 241 243 242 243 245 247 248 249 250 251 252 251 253 257 259 259 259 259 261 264
262 262 262 262 262 262 262 261 258 255 251 249 247 246 245 244 243 242 242 242 242 241 241 242 242 243 243 242 241 240 239 238 237 236 235 234 234 235 234 234 234 233 233 234 234 235 235 235 235 235 235 235 235 236 236 237 237 238 238 239 239 239 240 240 241 243 243 240 240 242 243 244 245 248 249 250 250 251 252 250 251 256 259 259 260 261 262 264
262 262 262 261 261 261 261 260 259 257 254 250 247 246 244 243 242 241 240 241 241 241 240 240 241 241 241 242 241 241 240 239 237 236 235 234 234 235 234 234 234 233 233 233 234 234 235 235 235 235 235 235 235 235 236 236 237 238 238 239 239 240 240 241 241 242 242 241 242 243 244 245 246 248 249 250 252 251 252 252 250 253 257 259 261 262 263 265
264 263 262 261 261 260 260 260 259 257 255 252 248 245 244 243 241 240 240 239 239 240 239 239 239 240 240 240 241 240 240 239 238 237 236 234 235 235 234 234 233 233 233 233 234 234 234 235 235 235 236 236 236 235 235 236 237 237 238 239 239 240 241 240 241 242 243 242 243 244 244 245 246 248 250 251 252 252 253 253 252 253 259 263 263 263 265 267
265 264 263 262 261 260 259 259 258 256 254 252 249 246 243 242 241 239 238 238 238 238 238 238 238 239 239 239 239 239 240 239 238 238 236 235 236 236 234 234 233 233 233 233 233 234 234 234 234 235 235 236 236 236 235 236 236 237 238 239 239 240 240 240 241 242 242 243 243 244 246 246 247 248 249 250 251 253 254 255 255 256 260 264 264 265 267 268
265 264 263 261 260 259 258 257 256 255 253 251 249 247 243 241 240 239 238 237 237 237 237 237 237 238 238 238 238 238 239 239 238 238 236 235 237 236 236 235 234 233 233 233 233 233 234 234 234 234 235 235 235 236 236 236 237 237 238 238 238 239 240 240 241 242 243 244 244 245 246 246 247 248 249 250 252 253 255 256 256 255 257 261 264 265 267 268
266 264 262 261 259 257 256 254 253 253 252 251 249 246 244 241 240 239 238 236 236 236 235 235 236 237 237 237 237 237 238 238 237 238 236 236 237 237 237 236 234 234 233 233 233 233 233 234 234 234 235 235 235 236 236 236 237 237 238 238 238 238 239 239 241 242 243 244 244 245 245 246 248 249 250 251 252 252 254 255 256 256 258 261 262 263 266 269
265 264 263 261 258 256 254 252 250 250 250 250 248 246 243 240 239 238 237 236 235 235 234 234 234 235 236 236 236 236 237 236 236 237 236 236 237 237 237 236 235 234 233 233 233 233 233 234 234 234 235 235 235 236 236 237 238 238 238 238 238 238 238 238 240 241 243 244 244 245 245 247 248 249 251 251 252 252 253 253 253 255 257 257 259 262 266 269
265 264 262 261 259 256 254 252 250 248 248 248 247 245 242 239 238 236 236 236 235 234 233 233 233 234 235 235 236 236 236 236 234 235 235 235 236 236 237 236 236 235 234 234 234 234 234 234 234 234 234 235 235 236 236 237 238 239 239 239 239 239 239 239 240 241 242 243 244 245 246 247 248 249 250 251 252 252 253 252 248 248 249 250 258 263 266 268
265 264 262 260 258 256 254 252 251 249 248 246 245 244 242 239 236 235 235 235 235 234 233 232 232 232 233 234 235 235 236 235 233 234 234 233 234 235 236 236 236 235 234 234 234 234 233 234 234 234 235 235 236 236 236 237 238 239 239 239 239 239 239 239 240 241 242 243 244 245 246 246 248 249 250 251 252 252 253 252 247 246 249 255 260 263 265 267
267 266 264 262 259 256 254 252 250 249 248 246 244 242 241 239 236 234 234 234 234 233 232 231 231 231 231 232 234 234 235 234 232 233 233 232 232 233 234 235 235 235 234 234 234 234 234 234 235 235 235 235 236 236 236 237 238 239 239 239 239 239 239 239 240 240 242 243 244 245 246 246 247 249 249 250 252 253 253 251 250 252 255 259 261 262 264 266
269 267 266 264 261 257 254 252 249 247 246 245 243 240 240 239 236 234 233 233 233 233 232 231 230 230 230 230 232 232 233 233 232 231 232 232 231 231 232 234 235 235 234 234 234 234 234 234 234 234 234 235 235 235 236 237 237 238 239 239 239 239 238 239 240 240 241 242 243 245 246 246 247 248 248 250 251 252 252 252 254 256 257 257 260 263 263 264
270 269 267 265 263 259 256 252 249 246 244 244 242 240 238 238 236 234 232 232 232 232 231 231 229 229 228 229 230 231 232 233 232 231 231 231 231 230 231 232 233 234 234 234 234 234 234 234 234 234 234 235 235 235 236 237 237 238 238 238 238 238 238 239 240 240 241 242 243 245 245 245 246 247 248 249 250 251 252 253 254 255 256 256 257 261 263 263
270 269 268 266 264 260 257 253 250 247 243 241 241 239 237 236 236 234 232 232 231 231 231 230 229 228 227 227 229 229 230 232 231 230 231 231 230 229 230 230 231 233 233 234 233 233 233 233 233 234 234 235 235 235 236 236 237 238 238 238 238 238 238 238 239 240 241 241 242 244 244 244 245 246 246 248 249 251 252 253 254 255 256 257 257 259 262 263
270 270 269 267 264 261 257 253 250 247 243 240 238 238 237 235 235 234 232 231 231 230 230 230 229 228 227 227 228 228 229 230 230 230 230 231 230 229 229 229 229 231 232 232 232 232 232 232 233 233 234 235 235 235 236 236 237 238 238 239 238 238 238 237 238 239 240 240 241 243 244 244 244 245 246 248 249 250 251 253 253 253 255 257 258 259 260 259
271 271 269 267 264 261 257 253 249 246 243 240 237 236 236 235 234 234 233 231 230 230 230 229 229 227 226 227 227 227 228 229 229 230 230 230 230 229 228 228 228 228 230 230 230 230 231 232 233 233 234 235 235 235 236 237 237 238 239 239 238 238 238 237 237 238 239 239 240 242 244 244 244 245 247 248 249 250 251 252 252 252 255 257 256 257 257 256
273 272 270 268 264 261 256 252 249 245 242 240 236 234 234 234 233 233 232 231 229 229 229 228 228 227 226 226 227 226 226 227 228 229 229 230 230 229 228 227 227 227 227 228 229 230 231 231 232 232 233 233 233 235 236 236 237 238 238 238 237 238 238 236 236 238 238 238 239 240 242 243 243 244 246 247 249 250 251 251 251 252 255 256 254 252 254 256
274 273 271 268 264 260 256 252 248 245 242 239 236 233 232 232 233 232 231 231 229 228 228 228 228 227 226 226 227 226 225 226 227 227 228 229 229 229 228 228 227 226 226 227 228 229 230 231 231 231 232 233 233 235 236 236 236 236 236 236 236 237 238 235 234 236 237 236 237 239 241 243 242 243 245 246 248 248 249 250 250 250 249 250 251 250 252 254
275 275 272 268 263 259 255 251 247 244 242 238 236 233 231 231 232 232 231 230 229 228 227 227 227 226 225 225 226 226 225 225 226 226 227 228 229 229 229 228 228 227 226 227 227 228 229 230 230 231 232 232 233 233 233 233 234 235 236 236 235 236 237 235 232 234 236 235 236 238 241 243 242 240 242 245 246 247 248 249 248 245 243 245 249 251 252 253
276 276 273 268 263 258 254 250 247 244 241 238 236 234 232 230 230 231 230 229 228 227 226 225 226 226 225 225 226 226 225 225 225 225 226 227 229 229 229 229 228 227 227 227 227 227 228 229 229 230 230 231 231 231 231 231 232 234 236 237 236 236 237 235 232 233 235 235 236 238 241 243 241 239 241 244 246 246 248 249 247 244 244 245 248 250 251 252
277 276 274 269 263 257 253 250 247 244 241 238 236 233 232 230 229 229 229 228 227 226 225 225 226 226 225 226 227 226 225 226 225 225 225 226 227 228 228 229 229 228 227 227 227 227 228 228 229 230 230 230 231 231 232 232 233 234 235 236 235 235 237 236 233 233 235 235 235 237 240 242 241 239 241 243 245 246 248 249 247 246 246 246 247 249 248 249
277 276 274 269 263 257 252 249 246 243 241 238 236 233 232 230 228 227 228 227 226 226 225 224 225 226 225 225 226 225 224 225 225 224 224 225 226 227 228 228 228 228 227 228 228 228 229 229 230 231 231 231 232 232 233 233 233 234 234 235 235 236 237 237 234 233 235 236 236 236 238 241 241 239 240 242 244 246 247 247 246 245 246 246 247 248 248 251
277 276 273 269 264 258 252 248 245 242 240 237 235 233 231 230 228 226 226 226 225 225 224 224 224 224 223 224 226 226 224 224 225 224 224 225 226 226 227 228 228 228 228 229 229 229 230 229 230 231 231 232 233 234 234 233 233 234 235 235 235 236 238 238 235 234 235 237 237 236 238 241 241 240 240 241 243 244 245 247 246 245 244 244 245 247 248 250
276 275 273 269 264 258 252 248 244 241 239 237 235 233 231 229 227 225 225 225 224 224 224 223 223 223 223 223 225 226 225 224 224 224 224 224 225 226 226 227 228 228 228 229 229 229 229 229 230 231 232 232 233 234 234 233 234 235 236 236 235 234 237 237 233 234 235 237 238 237 238 241 241 240 240 241 243 244 244 245 246 244 242 241 241 245 248 248
274 274 271 268 263 258 252 247 243 241 238 236 234 232 230 229 226 224 223 223 222 222 222 222 222 223 223 223 224 226 226 225 224 224 224 224 225 226 226 227 228 229 229 229 229 229 229 230 230 231 233 233 235 235 234 234 235 236 237 237 236 234 235 234 233 235 237 238 240 239 239 241 241 240 240 241 242 243 243 243 244 244 243 241 241 244 245 246
273 272 270 266 262 257 252 247 243 240 238 236 234 232 230 228 225 223 222 221 221 220 221 222 222 222 223 223 224 225 226 226 224 223 224 224 225 225 225 226 228 228 229 229 229 229 230 231 231 232 233 234 235 236 236 236 236 237 238 238 238 236 235 234 233 235 237 239 240 239 239 241 241 240 241 241 241 241 242 241 242 244 244 243 243 243 243 243
270 269 267 263 259 256 251 246 242 239 237 235 233 231 229 226 224 222 220 220 219 219 220 221 221 222 222 222 223 225 225 226 225 223 223 224 224 225 225 226 227 228 229 229 229 230 231 231 231 232 233 234 236 237 237 238 238 239 239 240 241 239 237 235 232 234 237 239 238 238 239 241 241 241 241 241 241 240 240 240 240 243 244 244 245 245 244 244
266 265 263 260 257 253 250 246 241 239 236 234 232 230 228 225 222 220 219 218 218 218 219 220 221 221 221 221 223 225 225 226 226 224 223 224 224 224 225 225 226 228 228 229 229 230 231 231 231 232 234 235 236 237 238 239 239 239 240 241 242 242 241 237 234 235 238 238 238 238 240 241 242 242 242 243 243 241 239 239 240 241 243 244 245 245 246 246
261 261 259 257 254 250 248 245 240 237 234 232 230 228 226 223 221 219 218 217 216 216 217 219 220 220 220 220 222 224 225 226 227 225 224 224 224 224 225 225 226 227 228 228 229 230 231 231 230 232 234 234 235 236 237 239 239 240 240 241 242 242 242 240 238 239 241 240 240 240 241 244 244 244 244 245 245 243 238 237 239 241 242 243 244 245 246 248
256 256 254 252 250 247 245 242 238 235 232 230 227 226 224 221 219 217 216 216 215 215 216 218 219 220 220 220 222 224 225 226 226 226 225 225 224 224 225 225 226 227 228 228 229 231 231 231 231 232 233 233 234 235 236 237 238 239 239 241 242 243 243 242 240 241 243 242 242 243 242 245 246 245 245 244 244 243 239 236 237 240 241 242 243 245 246 249
250 250 249 248 246 243 242 239 235 232 230 227 224 223 221 218 217 215 215 214 213 213 215 218 219 219 219 219 221 223 224 226 226 226 227 226 225 225 226 227 227 228 229 229 231 232 233 233 233 234 235 235 236 236 237 237 238 239 240 240 242 243 243 244 243 244 246 244 243 246 244 245 247 244 243 245 244 244 241 236 236 239 241 242 243 245 247 249
243 244 244 243 241 239 238 236 233 229 226 224 222 220 218 216 214 213 213 213 212 212 215 217 218 219 218 219 220 222 223 225 225 226 227 226 226 226 227 227 228 229 230 231 233 234 233 234 235 236 237 238 238 239 239 240 241 242 242 242 244 245 245 247 247 247 248 247 245 248 247 246 246 244 244 247 247 245 243 239 237 238 240 243 244 245 246 248
237 238 238 237 236 235 234 232 229 226 223 221 219 217 215 213 211 210 211 212 211 211 214 215 216 218 218 218 220 221 223 224 223 224 225 225 225 226 226 227 227 229 230 230 233 234 234 234 236 237 238 238 239 240 241 243 244 244 244 245 245 247 248 249 250 249 250 249 246 247 247 245 246 246 246 247 246 245 245 243 239 238 240 243 244 246 247 248
232 233 233 232 231 230 229 228 225 222 221 219 217 215 212 210 209 209 209 210 210 211 213 214 215 217 218 219 220 221 223 222 222 223 224 224 224 226 227 228 228 229 230 230 232 234 234 234 237 238 238 239 240 240 241 242 243 242 243 244 244 246 247 247 248 247 247 247 245 245 246 246 246 246 245 246 246 245 246 245 242 240 240 242 244 245 246 248
228 228 227 227 226 225 225 224 221 219 217 216 214 212 210 208 208 208 208 209 210 211 212 214 215 217 218 219 220 221 222 221 221 223 223 223 224 225 226 227 228 230 232 232 234 235 235 235 235 237 237 238 239 239 240 240 241 241 241 242 243 245 245 244 244 243 243 242 243 244 247 247 247 245 244 245 245 245 245 245 243 241 240 242 244 245 246 247
224 223 222 222 221 221 221 220 217 215 214 213 212 209 208 208 208 208 208 208 210 211 211 213 215 216 218 219 220 221 222 222 221 223 223 222 223 223 224 225 226 228 230 231 233 234 235 234 234 235 235 235 236 237 238 240 240 241 241 242 243 243 242 240 240 240 239 239 241 245 247 248 247 243 241 242 243 244 245 245 244 242 241 242 244 245 245 246
220 218 217 217 217 216 217 216 213 212 211 210 210 209 208 208 208 208 208 208 210 211 211 213 215 216 217 219 220 221 222 222 223 224 225 224 224 224 225 225 225 226 228 229 231 231 232 233 233 233 234 233 233 234 234 236 237 238 239 240 240 240 240 239 239 240 239 240 242 245 247 247 246 244 241 241 243 243 243 244 244 242 241 242 244 244 244 245
215 213 212 213 213 212 213 212 209 209 208 208 209 209 208 209 209 209 209 210 211 212 213 214 215 216 217 218 219 221 222 222 223 224 225 225 226 226 226 226 226 228 229 230 232 231 231 232 232 231 232 232 232 233 233 233 234 234 235 235 236 237 239 240 241 242 243 243 244 245 244 244 245 244 241 241 243 244 243 243 242 240 240 241 243 244 243 244
209 208 209 209 209 209 209 208 206 206 206 207 208 208 208 209 209 209 210 211 211 213 214 215 216 217 218 219 220 221 221 223 224 224 225 226 226 227 227 227 228 229 230 231 233 233 232 233 232 230 230 230 230 231 232 232 233 233 233 233 235 236 238 239 238 238 239 240 242 244 243 242 241 240 238 239 241 242 243 243 242 240 238 239 241 242 242 244
204 204 205 205 204 205 206 205 204 203 204 206 206 207 207 208 208 209 210 211 212 214 215 217 217 218 219 220 221 221 222 224 225 225 226 226 227 227 228 229 230 230 231 232 233 233 231 232 231 229 229 229 229 230 230 231 232 233 233 234 236 238 238 238 238 237 238 239 240 242 242 240 238 237 237 239 240 242 243 244 243 241 239 239 241 242 242 244
199 200 201 201 200 202 202 202 202 202 203 204 205 206 207 208 209 209 210 211 213 215 217 218 219 219 220 221 222 222 223 225 226 227 228 228 228 229 229 230 231 231 231 232 233 233 231 230 230 229 228 229 229 229 228 229 231 231 232 232 234 235 236 238 239 239 240 241 242 243 242 240 238 237 237 238 240 243 246 245 244 243 241 240 241 242 243 245
196 197 197 197 197 199 200 201 201 202 203 203 204 205 206 207 209 210 211 212 214 216 217 219 220 220 221 222 222 222 223 225 227 228 229 228 228 229 229 229 230 230 229 230 232 233 231 229 229 228 228 227 227 226 226 227 228 228 229 230 231 232 233 235 237 238 239 241 242 242 241 239 237 237 237 237 238 242 244 245 244 244 242 241 241 242 243 245
193 193 194 194 195 197 199 200 201 202 202 203 204 204 205 207 208 209 211 212 214 216 218 220 221 222 223 223 223 223 223 225 227 228 229 228 228 229 229 228 229 229 228 228 230 231 230 228 227 226 226 224 223 224 225 226 226 226 228 230 230 231 232 233 235 235 236 237 239 240 239 238 235 233 233 234 236 239 243 245 244 243 243 241 240 242 243 245
190 190 190 192 193 196 198 199 200 201 201 202 203 204 206 207 209 210 212 213 215 217 218 220 222 223 224 224 224 224 225 225 227 229 229 228 227 228 228 228 228 228 227 227 229 230 229 227 225 225 224 223 222 222 224 225 225 225 226 227 228 230 231 232 233 235 235 235 236 237 236 235 232 230 231 236 239 240 242 244 243 242 242 242 241 242 243 244
186 187 188 190 193 194 196 197 198 199 200 201 202 204 206 208 210 211 213 214 216 217 219 221 223 224 225 225 225 225 225 225 227 228 229 228 228 228 227 226 225 226 226 226 228 229 228 226 224 223 223 222 221 222 224 225 226 226 226 226 226 228 229 231 234 235 234 233 234 235 234 231 229 229 233 238 240 238 238 238 239 239 240 241 241 242 243 243
183 185 187 189 191 192 193 194 195 196 198 200 201 204 206 208 210 212 214 215 216 218 219 220 222 224 224 224 224 224 224 224 224 225 226 226 227 227 226 225 223 222 224 225 227 228 228 226 224 223 223 221 219 220 221 222 223 225 226 226 227 228 230 231 233 234 233 230 229 231 234 232 228 227 230 235 238 237 235 235 236 237 238 240 241 242 243 242
182 183 184 186 187 188 189 190 191 194 196 199 201 203 206 207 210 212 213 215 216 217 218 219 220 221 222 221 221 221 221 222 222 222 222 223 225 226 226 226 224 221 221 222 223 224 226 226 224 223 223 221 220 220 220 220 221 221 223 224 226 227 229 230 231 231 232 230 226 228 233 233 228 226 229 233 236 237 236 235 235 238 239 241 242 243 242 241
180 180 181 182 182 182 183 185 188 192 195 197 200 202 204 206 208 210 211 212 213 214 215 216 217 218 219 219 219 219 219 220 221 221 221 221 222 223 224 225 224 219 218 219 220 220 221 221 221 221 220 219 218 220 221 221 220 220 221 222 223 224 225 227 228 228 229 229 227 228 232 233 231 229 231 234 236 237 238 236 236 238 240 241 242 241 240 239
176 176 176 176 177 177 180 183 187 190 193 195 198 201 203 205 206 207 208 210 211 212 213 214 216 217 218 218 218 218 219 220 220 220 219 219 219 219 221 223 222 219 218 218 218 219 219 218 219 220 219 217 215 217 219 220 219 219 220 220 220 221 220 221 221 222 224 227 227 228 231 233 233 233 234 236 237 236 236 236 236 237 239 241 241 239 239 239
171 170 170 171 173 175 179 182 185 188 191 194 197 200 202 204 205 206 208 209 211 212 213 214 215 216 217 217 218 217 217 218 218 217 217 217 217 217 218 221 221 219 218 217 217 218 218 218 218 219 219 216 213 214 217 218 217 218 219 218 218 218 218 218 218 218 221 225 229 231 233 232 233 234 235 236 236 234 234 235 236 237 239 240 240 239 239 240
166 166 168 170 172 175 178 181 184 186 189 193 196 199 201 203 205 208 210 211 212 213 213 214 214 213 213 212 212 212 211 210 211 212 211 210 211 211 213 216 218 218 217 217 217 217 217 216 217 219 221 218 213 212 215 217 215 214 216 217 217 218 217 217 217 216 217 220 225 230 234 233 232 233 233 234 235 234 234 235 237 238 240 240 240 240 240 241
164 166 168 170 173 176 179 181 183 186 189 192 194 197 201 205 208 210 210 209 209 206 203 202 201 200 199 196 194 196 196 193 192 195 195 195 197 200 203 206 209 211 212 213 214 214 214 214 215 217 219 219 215 211 214 217 216 214 215 216 216 218 218 217 217 216 216 218 222 227 232 234 233 232 231 231 233 234 234 235 237 239 240 241 240 241 241 241
Height
10619 10620 10620 10621 10621 10622 10623 10625 10626 10627 10628 10629 10631 10633 10635 10638 10640 10643 10645 10646 10648 10650 10652 10655 10657 10659 10662 10665 10668 10671 10673 10676 10680 10683 10686 10691 10697 10701 10704 10708 10711 10715 10719 10723 10726 10730 10734 10737 10741 10745 10748 10751 10754 10757 10760 10763 10764 10767 10769 10770 10772 10773 10776 10782 10787 10786 10792 10805 10801 10795 10799 10800 10802 10802 10803 10806 10806 10810 10812 10817 10819 10815 10815 10817 10819 10820 10820 10821
10612 10613 10613 10614 10614 10615 10616 10617 10618 10619 10621 10622 10623 10625 10628 10631 10634 10637 10639 10640 10642 10644 10646 10649 10650 10653 10656 10658 10662 10664 10667 10670 10673 10677 10681 10688 10692 10693 10696 10700 10704 10708 10712 10716 10720 10724 10728 10732 10736 10739 10742 10745 10748 10752 10755 10757 10759 10761 10763 10764 10767 10767 10772 10781 10784 10785 10792 10797 10791 10791 10795 10797 10799 10799 10800 10801 10802 10805 10806 10812 10815 10812 10811 10812 10813 10815 10817 10818
10604 10605 10605 10606 10607 10607 10608 10609 10610 10612 10613 10615 10616 10618 10620 10623 10627 10630 10632 10634 10635 10637 10640 10643 10645 10647 10649 10653 10655 10657 10661 10663 10667 10672 10677 10683 10685 10686 10689 10693 10697 10701 10706 10710 10714 10718 10722 10726 10729 10732 10735 10739 10742 10746 10749 10752 10753 10755 10757 10759 10759 10763 10773 10779 10779 10782 10786 10787 10787 10789 10792 10793 10795 10795 10795 10796 10797 10800 10801 10806 10811 10810 10808 10808 10809 10811 10813 10814
10595 10596 10597 10597 10598 10599 10600 10601 10602 10604 10606 10607 10608 10610 10613 10616 10619 10622 10625 10627 10629 10631 10634 10637 10639 10641 10644 10647 10649 10652 10654 10656 10662 10668 10672 10677 10679 10680 10683 10686 10690 10694 10699 10704 10707 10711 10716 10719 10722 10726 10730 10733 10737 10740 10744 10745 10746 10749 10752 10751 10755 10764 10771 10773 10775 10779 10781 10781 10783 10785 10787 10790 10791 10791 10790 10791 10791 10794 10797 10800 10805 10808 10807 10805 10805 10806 10809 10811
10585 10586 10587 10588 10589 10590 10591 10592 10593 10595 10597 10598 10600 10602 10605 10608 10611 10614 10618 10620 10622 10624 10628 10630 10633 10635 10638 10640 10643 10646 10647 10651 10659 10662 10665 10671 10672 10673 10676 10680 10684 10688 10693 10697 10701 10705 10709 10712 10716 10720 10723 10727 10730 10734 10737 10738 10741 10744 10744 10745 10754 10762 10763 10768 10773 10775 10775 10776 10779 10781 10784 10786 10785 10785 10785 10785 10786 10790 10792 10795 10802 10808 10807 10802 10800 10802 10805 10807
10575 10576 10577 10578 10579 10581 10582 10583 10584 10586 10588 10590 10592 10594 10597 10600 10603 10607 10610 10613 10615 10618 10621 10624 10627 10629 10632 10634 10637 10639 10641 10648 10653 10653 10659 10665 10664 10667 10671 10675 10679 10683 10687 10690 10694 10698 10701 10705 10709 10713 10716 10720 10724 10727 10730 10733 10735 10737 10738 10743 10752 10755 10758 10766 10769 10768 10770 10772 10775 10778 10779 10780 10779 10780 10780 10780 10783 10786 10788 10791 10799 10804 10803 10797 10795 10799 10801 10803
10565 10566 10567 10568 10569 10571 10572 10574 10575 10577 10579 10581 10584 10586 10589 10592 10595 10599 10602 10605 10607 10611 10615 10617 10621 10623 10625 10628 10631 10633 10637 10643 10645 10647 10655 10659 10659 10663 10665 10669 10674 10678 10681 10684 10688 10691 10695 10699 10703 10706 10710 10714 10717 10720 10724 10727 10729 10730 10734 10740 10746 10749 10755 10762 10762 10763 10766 10767 10771 10772 10773 10773 10774 10776 10775 10776 10779 10782 10784 10789 10795 10796 10795 10792 10791 10795 10797 10799
10557 10557 10558 10559 10560 10561 10563 10564 10566 10568 10570 10572 10575 10578 10581 10584 10588 10591 10594 10597 10600 10603 10607 10611 10614 10616 10619 10622 10625 10628 10630 10636 10640 10642 10649 10653 10654 10657 10659 10664 10668 10672 10675 10678 10682 10685 10689 10693 10696 10700 10703 10707 10710 10713 10718 10722 10722 10725 10730 10735 10740 10746 10751 10756 10757 10759 10760 10762 10765 10766 10767 10768 10770 10771 10769 10771 10774 10777 10782 10787 10791 10791 10790 10788 10788 10792 10794 10795
10548 10549 10549 10550 10551 10552 10553 10554 10557 10559 10561 10563 10565 10568 10571 10575 10579 10582 10586 10589 10592 10595 10599 10604 10608 10610 10613 10616 10620 10622 10625 10631 10635 10636 10643 10647 10648 10651 10654 10658 10662 10666 10670 10673 10677 10680 10684 10687 10689 10693 10696 10700 10704 10709 10714 10715 10716 10721 10726 10730 10737 10742 10747 10751 10752 10754 10755 10757 10759 10760 10763 10764 10765 10764 10762 10766 10770 10772 10776 10782 10787 10787 10787 10787 10788 10790 10791 10792
10539 10539 10540 10541 10541 10542 10544 10546 10548 10549 10552 10554 10556 10559 10562 10566 10570 10574 10578 10581 10584 10587 10591 10596 10601 10603 10606 10610 10614 10617 10620 10625 10628 10631 10637 10641 10643 10646 10649 10652 10656 10661 10665 10668 10672 10674 10678 10680 10683 10687 10691 10696 10700 10704 10708 10708 10711 10717 10720 10725 10732 10737 10742 10745 10746 10749 10750 10752 10753 10755 10757 10758 10759 10757 10757 10762 10765 10766 10771 10775 10779 10781 10784 10786 10787 10787 10787 10788
10529 10529 10530 10530 10531 10532 10534 10536 10538 10540 10542 10544 10546 10549 10553 10557 10561 10566 10570 10573 10576 10579 10583 10588 10593 10597 10600 10605 10608 10613 10614 10617 10623 10627 10630 10634 10638 10641 10643 10646 10651 10655 10659 10663 10666 10669 10673 10676 10679 10683 10686 10690 10694 10697 10701 10702 10707 10711 10713 10720 10726 10730 10736 10738 10740 10743 10744 10745 10747 10749 10750 10753 10753 10749 10753 10759 10759 10760 10764 10767 10770 10775 10781 10783 10782 10783 10783 10784
10519 10519 10519 10519 10520 10522 10524 10525 10528 10530 10532 10534 10537 10540 10544 10548 10553 10557 10561 10565 10567 10571 10575 10580 10586 10590 10594 10599 10603 10606 10606 10610 10619 10621 10623 10629 10633 10636 10638 10641 10645 10649 10654 10658 10661 10665 10668 10671 10674 10676 10679 10684 10686 10690 10694 10696 10701 10704 10707 10715 10719 10724 10730 10731 10734 10736 10737 10740 10743 10744 10744 10746 10745 10743 10750 10755 10752 10754 10757 10760 10766 10773 10777 10777 10778 10778 10778 10779
10510 10509 10509 10509 10510 10511 10513 10515 10517 10519 10521 10524 10527 10531 10536 10539 10544 10548 10552 10556 10559 10563 10567 10572 10578 10582 10588 10594 10595 10597 10599 10605 10614 10616 10618 10624 10627 10631 10634 10636 10640 10644 10649 10653 10657 10660 10663 10666 10667 10670 10676 10678 10679 10684 10689 10690 10694 10697 10701 10707 10712 10718 10723 10725 10728 10730 10733 10737 10739 10738 10736 10739 10737 10738 10747 10748 10745 10748 10752 10755 10763 10769 10771 10772 10773 10773 10773 10774
10500 10499 10499 10499 10499 10500 10502 10504 10506 10508 10511 10514 10517 10522 10526 10531 10535 10539 10544 10547 10551 10555 10559 10565 10570 10574 10583 10586 10585 10590 10595 10601 10608 10610 10613 10618 10622 10626 10628 10632 10636 10639 10644 10648 10652 10655 10657 10660 10661 10667 10671 10670 10674 10682 10682 10683 10688 10691 10695 10701 10707 10712 10716 10719 10722 10725 10729 10732 10734 10730 10728 10731 10730 10734 10742 10742 10740 10744 10747 10751 10759 10766 10766 10767 10769 10769 10768 10768
10490 10489 10488 10488 10488 10489 10491 10493 10495 10497 10500 10503 10507 10512 10517 10522 10526 10530 10534 10538 10542 10547 10551 10556 10561 10568 10576 10576 10577 10584 10589 10595 10601 10604 10608 10612 10616 10620 10624 10628 10631 10635 10638 10643 10647 10649 10651 10654 10658 10663 10664 10665 10673 10676 10674 10679 10683 10685 10690 10696 10701 10705 10708 10712 10716 10720 10723 10726 10728 10724 10721 10723 10724 10731 10738 10737 10736 10740 10743 10748 10756 10762 10761 10762 10765 10764 10763 10763
10480 10479 10478 10478 10477 10478 10480 10481 10483 10486 10489 10493 10497 10503 10508 10512 10516 10521 10525 10529 10535 10539 10544 10549 10554 10561 10566 10568 10571 10578 10582 10588 10593 10598 10603 10606 10610 10615 10619 10622 10626 10630 10633 10637 10641 10642 10646 10650 10654 10658 10659 10664 10669 10668 10670 10676 10678 10681 10686 10689 10695 10697 10699 10705 10712 10715 10716 10720 10723 10718 10713 10713 10720 10730 10734 10732 10732 10736 10739 10744 10752 10758 10758 10759 10760 10759 10759 10759
10470 10469 10468 10467 10467 10467 10468 10470 10472 10475 10478 10482 10487 10493 10497 10502 10507 10511 10516 10521 10526 10531 10535 10541 10546 10552 10558 10561 10563 10568 10574 10580 10585 10592 10598 10600 10604 10610 10613 10616 10620 10625 10628 10631 10634 10637 10641 10645 10649 10653 10655 10660 10662 10663 10668 10672 10673 10677 10679 10682 10688 10689 10690 10700 10708 10707 10709 10716 10716 10711 10705 10704 10717 10729 10728 10727 10728 10731 10735 10740 10750 10756 10756 10756 10755 10755 10755 10755
10460 10459 10458 10457 10456 10456 10458 10460 10462 10465 10468 10472 10477 10482 10486 10491 10497 10502 10507 10512 10517 10523 10528 10533 10538 10543 10548 10552 10553 10559 10568 10574 10579 10586 10591 10594 10599 10603 10607 10610 10615 10619 10623 10626 10629 10633 10637 10641 10645 10648 10651 10655 10657 10660 10664 10666 10668 10670 10672 10676 10680 10682 10684 10694 10701 10699 10703 10709 10707 10704 10696 10697 10716 10727 10722 10721 10723 10726 10729 10735 10748 10754 10754 10752 10749 10749 10750 10749
10450 10449 10448 10447 10447 10447 10448 10450 10452 10455 10458 10462 10467 10472 10476 10481 10487 10493 10498 10503 10510 10515 10519 10524 10529 10533 10538 10542 10545 10554 10564 10568 10572 10579 10584 10589 10593 10597 10601 10606 10610 10614 10618 10621 10625 10629 10632 10636 10641 10644 10648 10651 10653 10656 10658 10659 10661 10663 10667 10670 10675 10677 10679 10686 10692 10692 10696 10700 10700 10698 10690 10694 10714 10720 10716 10716 10717 10721 10724 10731 10744 10749 10748 10748 10745 10744 10745 10744
10440 10439 10438 10437 10437 10438 10438 10440 10443 10445 10449 10453 10458 10461 10465 10471 10477 10483 10489 10496 10501 10504 10508 10516 10520 10522 10529 10535 10540 10549 10557 10560 10565 10572 10579 10583 10587 10592 10596 10600 10605 10609 10613 10617 10620 10624 10627 10632 10637 10640 10643 10644 10647 10649 10650 10652 10655 10660 10663 10665 10670 10672 10673 10678 10686 10689 10690 10691 10693 10692 10686 10691 10707 10712 10712 10711 10711 10716 10720 10727 10738 10740 10740 10742 10741 10740 10740 10740
10430 10429 10428 10428 10428 10429 10429 10431 10434 10436 10440 10445 10448 10451 10456 10462 10468 10475 10481 10486 10489 10493 10502 10509 10511 10515 10525 10533 10536 10543 10549 10552 10559 10566 10573 10576 10580 10586 10590 10595 10599 10604 10608 10610 10614 10618 10622 10629 10633 10634 10637 10638 10641 10643 10644 10647 10654 10657 10657 10660 10664 10666 10668 10673 10682 10685 10683 10684 10686 10686 10683 10686 10698 10708 10709 10706 10705 10711 10716 10723 10730 10733 10734 10736 10737 10736 10735 10737
10421 10420 10419 10419 10419 10420 10421 10423 10425 10428 10432 10435 10438 10442 10448 10453 10458 10465 10470 10474 10480 10487 10494 10499 10504 10510 10520 10526 10528 10533 10539 10545 10553 10560 10565 10570 10575 10580 10585 10589 10593 10598 10601 10603 10609 10614 10619 10625 10627 10628 10630 10633 10636 10637 10639 10646 10651 10651 10651 10655 10659 10662 10663 10668 10679 10681 10677 10678 10678 10681 10681 10680 10692 10703 10703 10699 10701 10707 10712 10717 10723 10727 10728 10730 10733 10732 10731 10732
10411 10411 10410 10410 10411 10412 10413 10414 10417 10420 10423 10426 10429 10434 10439 10443 10448 10455 10461 10466 10473 10479 10486 10493 10498 10503 10511 10516 10518 10524 10533 10539 10546 10553 10559 10564 10569 10574 10579 10583 10587 10591 10594 10599 10606 10609 10615 10619 10619 10621 10624 10627 10630 10631 10636 10642 10645 10644 10646 10651 10655 10658 10658 10666 10676 10674 10672 10672 10670 10676 10678 10675 10687 10697 10695 10695 10698 10703 10708 10712 10718 10722 10722 10725 10729 10728 10727 10728
10401 10401 10402 10402 10402 10403 10405 10406 10409 10412 10414 10417 10421 10426 10430 10435 10440 10447 10453 10459 10466 10473 10479 10485 10489 10495 10503 10508 10512 10519 10526 10532 10539 10547 10553 10558 10563 10567 10573 10577 10579 10584 10589 10594 10600 10604 10608 10610 10611 10615 10619 10622 10624 10627 10633 10637 10638 10640 10643 10646 10650 10653 10654 10663 10670 10666 10666 10665 10663 10673 10675 10673 10683 10688 10689 10691 10693 10698 10704 10708 10712 10714 10716 10721 10725 10725 10725 10724
10392 10393 10393 10394 10395 10395 10397 10399 10402 10403 10406 10409 10413 10418 10422 10427 10433 10440 10445 10451 10459 10465 10470 10475 10483 10490 10495 10501 10509 10515 10519 10525 10532 10541 10547 10552 10556 10560 10567 10570 10573 10579 10584 10588 10594 10598 10600 10602 10607 10612 10614 10618 10620 10623 10628 10631 10633 10635 10638 10641 10644 10646 10650 10658 10663 10662 10662 10659 10661 10672 10672 10670 10677 10679 10683 10687 10689 10695 10700 10704 10707 10707 10710 10715 10719 10721 10722 10721
10383 10383 10384 10386 10387 10388 10390 10392 10394 10395 10399 10402 10406 10410 10414 10420 10426 10432 10438 10444 10450 10456 10463 10471 10477 10482 10488 10498 10504 10506 10510 10518 10525 10533 10539 10544 10547 10553 10559 10563 10567 10572 10576 10581 10587 10590 10594 10598 10604 10607 10610 10613 10615 10619 10623 10626 10628 10630 10633 10636 10637 10642 10648 10654 10659 10658 10657 10655 10659 10666 10667 10668 10671 10672 10677 10681 10684 10690 10694 10699 10702 10701 10703 10708 10712 10714 10715 10716
10373 10374 10376 10378 10379 10381 10383 10384 10385 10388 10392 10395 10398 10402 10407 10413 10419 10425 10431 10436 10442 10450 10458 10465 10470 10476 10485 10492 10494 10498 10507 10513 10517 10525 10531 10535 10539 10545 10551 10556 10561 10564 10568 10575 10580 10585 10590 10593 10598 10603 10605 10608 10611 10615 10618 10620 10623 10625 10629 10630 10633 10639 10644 10649 10653 10652 10651 10650 10654 10660 10662 10663 10664 10666 10672 10674 10678 10684 10689 10695 10698 10697 10698 10702 10704 10706 10707 10709
10364 10365 10367 10369 10372 10374 10375 10377 10379 10382 10385 10387 10390 10395 10400 10406 10412 10418 10423 10428 10436 10445 10452 10458 10464 10471 10478 10483 10488 10495 10501 10503 10509 10518 10523 10526 10531 10538 10543 10549 10553 10556 10562 10570 10575 10581 10583 10585 10594 10598 10599 10603 10608 10610 10612 10614 10617 10620 10623 10625 10629 10635 10637 10642 10647 10646 10645 10645 10651 10657 10658 10658 10658 10661 10666 10669 10672 10679 10686 10690 10692 10693 10695 10696 10697 10698 10701 10702
10354 10356 10358 10361 10364 10367 10368 10370 10373 10375 10377 10380 10385 10389 10394 10400 10405 10410 10416 10423 10432 10440 10447 10453 10457 10463 10470 10478 10484 10487 10491 10497 10505 10511 10512 10516 10523 10531 10536 10541 10546 10550 10556 10564 10569 10572 10574 10580 10590 10591 10592 10598 10601 10603 10606 10609 10612 10613 10616 10621 10624 10628 10631 10636 10641 10641 10640 10643 10650 10655 10655 10653 10653 10658 10662 10664 10667 10674 10681 10685 10687 10688 10690 10690 10691 10692 10695 10696
10344 10347 10350 10354 10357 10360 10361 10364 10366 10368 10371 10375 10379 10383 10389 10394 10399 10405 10412 10419 10427 10435 10441 10445 10450 10457 10466 10473 10476 10479 10487 10492 10496 10500 10504 10510 10517 10523 10528 10532 10539 10543 10549 10558 10562 10563 10568 10576 10582 10583 10585 10591 10593 10595 10600 10604 10604 10605 10611 10617 10618 10622 10626 10630 10635 10636 10636 10643 10650 10650 10651 10649 10649 10655 10658 10657 10662 10669 10675 10679 10681 10682 10683 10684 10686 10687 10689 10691
10334 10338 10342 10346 10350 10353 10355 10357 10360 10362 10366 10370 10374 10378 10383 10388 10393 10400 10407 10414 10422 10430 10434 10439 10446 10453 10460 10466 10469 10475 10481 10483 10488 10496 10501 10505 10511 10517 10521 10527 10534 10539 10544 10554 10556 10557 10565 10572 10576 10579 10581 10584 10588 10591 10595 10597 10596 10600 10609 10613 10612 10617 10621 10625 10630 10633 10634 10643 10647 10645 10646 10645 10644 10650 10652 10652 10660 10665 10668 10672 10674 10675 10677 10678 10681 10683 10685 10687
10325 10329 10334 10339 10342 10346 10348 10351 10354 10357 10361 10364 10369 10373 10378 10383 10389 10397 10403 10409 10417 10424 10429 10435 10442 10447 10454 10459 10463 10469 10473 10477 10486 10492 10493 10498 10505 10511 10516 10522 10530 10535 10541 10549 10549 10551 10561 10566 10569 10573 10575 10579 10583 10585 10589 10591 10591 10599 10607 10607 10608 10612 10617 10622 10627 10630 10633 10639 10642 10640 10641 10640 10638 10645 10649 10651 10658 10660 10662 10666 10668 10670 10671 10673 10676 10678 10681 10683
10315 10320 10326 10331 10335 10339 10342 10345 10348 10352 10356 10359 10364 10368 10373 10380 10386 10392 10397 10402 10411 10418 10423 10429 10435 10440 10447 10453 10458 10463 10467 10473 10482 10484 10485 10492 10498 10502 10508 10515 10522 10527 10533 10539 10540 10543 10553 10558 10562 10566 10569 10574 10577 10580 10585 10587 10588 10597 10603 10602 10604 10608 10613 10620 10623 10626 10630 10633 10635 10634 10632 10632 10634 10642 10648 10650 10654 10655 10657 10660 10662 10664 10665 10667 10670 10672 10675 10678
10306 10312 10318 10323 10328 10332 10336 10339 10343 10347 10351 10355 10360 10364 10370 10376 10381 10386 10390 10396 10404 10410 10416 10423 10430 10436 10442 10448 10453 10458 10462 10470 10477 10478 10481 10487 10492 10497 10503 10508 10515 10520 10524 10529 10532 10537 10545 10553 10557 10560 10563 10567 10570 10575 10579 10579 10582 10591 10594 10595 10599 10603 10610 10616 10617 10621 10625 10626 10627 10625 10624 10628 10634 10640 10644 10645 10647 10649 10650 10653 10656 10658 10659 10661 10663 10666 10670 10673
10298 10304 10311 10316 10321 10325 10330 10334 10338 10342 10347 10351 10355 10360 10365 10370 10374 10378 10383 10391 10399 10405 10413 10420 10425 10431 10437 10442 10447 10453 10458 10464 10470 10472 10477 10483 10487 10492 10497 10502 10509 10514 10517 10523 10528 10532 10539 10546 10548 10549 10554 10558 10562 10568 10569 10569 10576 10584 10586 10589 10595 10601 10605 10608 10609 10614 10618 10618 10618 10617 10620 10627 10633 10635 10637 10639 10640 10642 10644 10647 10649 10651 10653 10654 10657 10660 10664 10667
10290 10297 10303 10309 10314 10319 10324 10329 10333 10338 10342 10346 10351 10355 10359 10363 10367 10372 10379 10387 10394 10401 10409 10415 10420 10427 10433 10437 10443 10449 10453 10459 10464 10467 10473 10478 10482 10487 10491 10496 10503 10507 10512 10518 10521 10525 10532 10536 10537 10540 10544 10549 10555 10558 10560 10564 10572 10576 10579 10586 10594 10596 10596 10599 10602 10606 10609 10611 10611 10613 10619 10625 10629 10630 10631 10633 10635 10637 10639 10642 10643 10645 10647 10648 10651 10654 10658 10661
10284 10290 10297 10303 10308 10314 10319 10324 10329 10334 10338 10343 10346 10350 10353 10358 10364 10370 10378 10384 10389 10396 10403 10408 10415 10422 10427 10432 10439 10444 10448 10454 10460 10464 10468 10473 10477 10481 10486 10491 10497 10501 10505 10510 10511 10516 10523 10525 10527 10532 10536 10541 10545 10547 10551 10558 10564 10569 10576 10584 10586 10584 10586 10591 10596 10600 10603 10606 10608 10612 10616 10621 10622 10623 10627 10629 10630 10632 10634 10636 10637 10639 10641 10642 10644 10647 10651 10656
10278 10285 10291 10297 10303 10309 10315 10320 10325 10330 10334 10338 10341 10345 10351 10356 10362 10368 10375 10381 10387 10393 10399 10405 10411 10416 10421 10428 10433 10437 10443 10449 10454 10458 10462 10467 10470 10475 10480 10485 10491 10494 10498 10501 10503 10509 10515 10514 10518 10524 10528 10532 10536 10538 10544 10551 10557 10564 10571 10574 10573 10575 10582 10587 10593 10598 10601 10603 10606 10607 10611 10615 10616 10617 10622 10624 10624 10626 10628 10629 10631 10633 10635 10636 10638 10641 10646 10650
10273 10279 10285 10292 10298 10305 10311 10316 10321 10326 10330 10334 10338 10343 10349 10354 10360 10367 10372 10378 10384 10389 10394 10400 10406 10411 10417 10422 10426 10432 10439 10444 10447 10451 10456 10460 10463 10468 10473 10478 10483 10486 10490 10495 10496 10501 10506 10506 10510 10517 10520 10522 10526 10530 10540 10549 10554 10558 10562 10564 10567 10573 10579 10583 10588 10593 10594 10596 10599 10600 10605 10609 10610 10611 10614 10617 10619 10621 10621 10623 10625 10627 10629 10630 10632 10635 10641 10645
10268 10274 10281 10288 10295 10301 10307 10313 10318 10323 10326 10330 10335 10340 10345 10350 10356 10362 10368 10374 10380 10384 10389 10395 10400 10406 10412 10416 10422 10429 10435 10437 10441 10446 10449 10452 10457 10463 10468 10472 10476 10479 10484 10489 10489 10493 10497 10498 10502 10508 10509 10513 10520 10529 10539 10545 10547 10551 10558 10563 10566 10571 10575 10578 10582 10586 10588 10590 10593 10594 10598 10601 10603 10606 10610 10613 10615 10615 10616 10618 10621 10622 10623 10625 10627 10631 10636 10640
10264 10271 10278 10285 10291 10298 10304 10309 10314 10318 10321 10326 10332 10337 10342 10348 10353 10359 10365 10371 10375 10380 10386 10390 10395 10402 10407 10412 10419 10425 10429 10432 10436 10440 10442 10446 10453 10458 10462 10465 10468 10473 10478 10482 10482 10484 10489 10491 10494 10499 10504 10512 10521 10529 10534 10537 10540 10547 10554 10556 10560 10566 10570 10572 10576 10582 10585 10587 10588 10590 10592 10594 10598 10603 10606 10609 10610 10609 10611 10613 10615 10616 10618 10620 10623 10627 10631 10635
10262 10269 10275 10282 10288 10294 10299 10304 10309 10314 10319 10324 10330 10335 10340 10346 10351 10357 10362 10367 10371 10376 10380 10384 10390 10397 10402 10407 10413 10418 10423 10427 10430 10432 10435 10442 10448 10450 10453 10458 10461 10466 10472 10475 10475 10477 10482 10485 10488 10494 10503 10510 10516 10521 10525 10528 10533 10540 10544 10547 10552 10558 10562 10566 10572 10577 10580 10581 10583 10583 10584 10588 10595 10599 10602 10604 10604 10603 10605 10607 10609 10611 10614 10616 10619 10623 10626 10630
10260 10266 10273 10279 10285 10290 10296 10301 10307 10312 10318 10323 10328 10333 10338 10343 10348 10353 10357 10362 10366 10371 10375 10380 10386 10391 10396 10402 10408 10413 10418 10421 10423 10424 10429 10436 10441 10443 10448 10452 10455 10460 10466 10467 10466 10469 10475 10480 10484 10490 10497 10501 10506 10511 10516 10520 10526 10533 10536 10541 10548 10554 10558 10563 10567 10569 10571 10573 10576 10576 10578 10584 10591 10596 10599 10598 10598 10598 10599 10601 10605 10607 10609 10612 10615 10618 10622 10625
10259 10265 10271 10276 10282 10287 10293 10299 10305 10310 10316 10321 10326 10331 10336 10340 10344 10349 10353 10358 10362 10367 10372 10376 10381 10386 10391 10397 10402 10407 10412 10415 10417 10420 10423 10429 10435 10438 10442 10446 10450 10455 10459 10460 10460 10464 10470 10475 10481 10485 10488 10492 10499 10504 10508 10514 10522 10527 10531 10537 10544 10549 10553 10557 10559 10560 10562 10567 10569 10570 10573 10580 10586 10591 10593 10590 10591 10593 10595 10598 10601 10602 10604 10608 10611 10615 10618 10621
10259 10264 10269 10275 10280 10286 10291 10297 10303 10309 10314 10319 10324 10329 10333 10337 10341 10345 10350 10354 10359 10363 10368 10372 10377 10381 10387 10392 10396 10401 10405 10409 10413 10415 10419 10425 10430 10432 10434 10439 10444 10448 10451 10453 10456 10460 10465 10470 10474 10477 10481 10487 10496 10502 10508 10515 10520 10524 10528 10534 10540 10543 10548 10552 10553 10554 10558 10564 10565 10564 10567 10573 10580 10586 10586 10584 10585 10588 10590 10594 10596 10597 10600 10604 10607 10610 10613 10616
10257 10262 10268 10273 10279 10285 10291 10297 10303 10308 10313 10318 10322 10326 10330 10334 10338 10343 10347 10351 10355 10360 10364 10368 10373 10377 10381 10385 10389 10394 10399 10403 10406 10409 10414 10420 10422 10424 10428 10434 10438 10441 10445 10449 10454 10458 10462 10465 10470 10473 10477 10484 10491 10496 10502 10508 10513 10519 10525 10530 10535 10539 10544 10546 10547 10550 10557 10560 10558 10557 10561 10569 10577 10581 10580 10579 10581 10582 10585 10589 10591 10593 10596 10599 10603 10606 10609 10612
10256 10261 10267 10272 10279 10285 10291 10298 10303 10308 10312 10316 10319 10323 10327 10332 10336 10340 10344 10348 10352 10357 10361 10364 10368 10371 10374 10379 10383 10388 10393 10396 10400 10404 10409 10414 10416 10419 10424 10429 10433 10438 10442 10446 10451 10455 10459 10464 10469 10471 10475 10481 10487 10491 10497 10502 10507 10513 10518 10523 10528 10533 10538 10540 10543 10549 10552 10551 10551 10553 10557 10564 10571 10574 10574 10575 10576 10577 10580 10585 10587 10589 10592 10596 10599 10601 10604 10607
10257 10262 10268 10274 10280 10286 10292 10297 10302 10305 10309 10313 10317 10321 10325 10329 10333 10337 10341 10345 10349 10353 10356 10360 10363 10366 10370 10374 10379 10384 10388 10392 10396 10401 10406 10409 10413 10418 10421 10424 10429 10434 10438 10441 10446 10451 10455 10461 10465 10468 10472 10477 10483 10488 10493 10498 10502 10507 10510 10516 10521 10526 10530 10535 10540 10543 10542 10542 10545 10550 10554 10560 10565 10568 10569 10569 10571 10573 10576 10580 10583 10585 10588 10591 10594 10596 10599 10602
10259 10264 10270 10276 10281 10287 10291 10296 10300 10304 10308 10312 10316 10319 10323 10326 10330 10335 10338 10342 10345 10349 10352 10355 10359 10363 10367 10371 10375 10380 10384 10389 10393 10397 10402 10406 10410 10414 10416 10419 10424 10429 10433 10438 10443 10447 10452 10458 10463 10466 10470 10474 10479 10484 10488 10492 10496 10501 10505 10510 10514 10518 10522 10526 10530 10533 10533 10535 10541 10546 10550 10555 10559 10561 10563 10564 10567 10569 10572 10575 10578 10581 10584 10586 10589 10591 10593 10597
10261 10265 10270 10275 10280 10285 10290 10294 10298 10303 10307 10311 10314 10318 10321 10325 10329 10332 10336 10339 10342 10345 10348 10352 10356 10359 10363 10367 10371 10376 10380 10385 10389 10392 10397 10402 10406 10410 10413 10415 10419 10424 10429 10433 10438 10443 10450 10456 10461 10463 10465 10470 10476 10480 10484 10487 10491 10495 10499 10503 10507 10511 10515 10519 10523 10527 10530 10535 10540 10543 10545 10549 10552 10555 10558 10560 10562 10565 10567 10570 10573 10575 10578 10581 10583 10585 10589 10593
10262 10266 10271 10275 10280 10284 10288 10292 10296 10301 10305 10309 10312 10316 10320 10324 10327 10330 10333 10336 10339 10342 10346 10349 10353 10356 10360 10363 10367 10371 10375 10379 10384 10388 10392 10396 10400 10404 10408 10411 10415 10419 10423 10427 10433 10439 10445 10451 10456 10458 10461 10467 10473 10477 10481 10483 10486 10491 10494 10498 10503 10507 10511 10515 10520 10524 10529 10532 10535 10537 10539 10543 10547 10550 10553 10555 10558 10561 10564 10566 10568 10571 10574 10576 10578 10581 10585 10588
10263 10267 10271 10276 10279 10283 10287 10291 10295 10299 10303 10307 10310 10314 10318 10321 10324 10327 10330 10333 10336 10340 10343 10347 10350 10354 10357 10361 10364 10368 10372 10376 10381 10384 10388 10392 10396 10400 10404 10407 10410 10414 10418 10423 10428 10433 10439 10445 10450 10454 10458 10464 10470 10475 10479 10480 10483 10486 10491 10496 10501 10504 10507 10511 10515 10520 10525 10526 10529 10533 10535 10537 10541 10545 10548 10551 10554 10556 10559 10561 10564 10567 10569 10571 10574 10577 10580 10582